EW7595 Weather Reports


Display with metric or nautical units.
time (UTC)temp
F
wind
direction
speed
MPH
gust
MPH
rain 1hr
in
rain 24hr
in
rain mn
in
humidity
%
barometer
mb
20181217141514 0 0.0 0.0 0.00 0.00 0.00 1011.7
20181217140120 0 0.0 0.0 0.00 0.00 0.00 1011.8
20181217134516 0 0.0 0.0 0.00 0.00 0.00 1011.9
20181217133220 0 0.0 0.0 0.00 0.00 0.00 1011.8
20181217131610 0 0.0 0.0 0.00 0.00 0.00 1011.9
20181217130008 0 0.0 0.0 0.00 0.00 0.00 1012.0
20181217124650 0 0.0 0.0 0.00 0.00 0.00 1011.8
20181217123035 0 0.0 0.0 0.00 0.00 0.00 1011.9
20181217121720 0 0.0 0.0 0.00 0.00 0.00 1011.9
20181217120047 0 0.0 0.0 0.00 0.00 0.00 1012.1
20181217113132 0 0.0 0.0 0.00 0.00 0.00 1012.4
20181217111511 0 0.0 0.0 0.00 0.00 0.00 1012.6
20181217110205 0 0.0 0.0 0.00 0.00 0.00 1012.9
20181217104544 0 0.0 0.0 0.00 0.00 0.00 1012.9
20181217101616 0 0.0 0.0 0.00 0.00 0.00 1013.2
20181217100014 48 181 8.0 18.0 0.00 0.00 0.00 32 1013.6
20181217094636 47 195 6.0 15.0 0.00 0.00 0.00 33 1013.6
20181217093112 47 200 8.0 18.0 0.00 0.00 0.00 32 1013.3
20181217090119 48 135 12.0 22.0 0.00 0.00 0.00 31 1013.2
20181217084537 48 170 14.0 24.0 0.00 0.00 0.00 31 1013.0
20181217083113 48 187 11.0 18.0 0.00 0.00 0.00 31 1013.2
20181217081527 48 203 13.0 20.0 0.00 0.00 0.00 30 1013.1
20181217074611 49 98 13.0 21.0 0.00 0.00 0.00 30 1012.9
20181217073016 48 184 9.0 18.0 0.00 0.00 0.00 30 1013.2
20181217070059 47 204 5.0 16.0 0.00 0.00 0.00 32 1013.5
20181217064516 47 238 13.0 18.0 0.00 0.00 0.00 31 1013.2
20181217063054 47 210 9.0 20.0 0.00 0.00 0.00 31 1013.4
20181217061535 47 174 12.0 19.0 0.00 0.00 0.00 31 1013.5
20181217054615 47 195 12.0 19.0 0.00 0.00 0.00 31 1013.4
20181217053036 47 200 11.0 15.0 0.00 0.00 0.00 31 1013.4
20181217051719 47 194 8.0 13.0 0.00 0.00 0.00 31 1013.6
20181217050113 46 188 3.0 6.0 0.00 0.00 0.00 32 1013.8
20181217044529 46 225 2.0 7.0 0.00 0.00 0.00 32 1014.1
20181217041621 45 200 4.0 7.0 0.00 0.00 0.00 34 1014.4
20181217040052 46 239 4.0 12.0 0.00 0.00 0.00 32 1014.4
20181217034744 47 150 6.0 15.0 0.00 0.00 0.00 31 1014.6
20181217033126 47 197 7.0 14.0 0.00 0.00 0.00 31 1014.6
20181217031518 49 194 8.0 17.0 0.00 0.00 0.00 30 1014.8
20181217024553 47 205 7.0 13.0 0.00 0.00 0.00 31 1015.1
20181217023002 46 193 5.0 11.0 0.00 0.00 0.00 32 1015.2
20181217021617 47 205 5.0 8.0 0.00 0.00 0.00 32 1015.3
20181217020041 48 230 5.0 9.0 0.00 0.00 0.00 31 1015.2
20181217013123 49 229 3.0 6.0 0.00 0.00 0.00 31 1015.8
20181217011523 50 219 1.0 7.0 0.00 0.00 0.00 30 1015.9
20181217010136 50 164 3.0 9.0 0.00 0.00 0.00 29 1016.2
20181217004604 51 188 9.0 15.0 0.00 0.00 0.00 28 1016.3
20181217001637 52 187 8.0 13.0 0.00 0.00 0.00 28 1016.3
20181217000118 52 136 9.0 15.0 0.00 0.00 0.00 27 1016.3
20181216233134 53 174 9.0 15.0 0.00 0.00 0.00 27 1016.5
20181216231515 55 183 7.0 12.0 0.00 0.00 0.00 26 1016.7
20181216230132 55 191 7.0 13.0 0.00 0.00 0.00 26 1016.9
20181216224533 55 143 9.0 13.0 0.00 0.00 0.00 26 1016.9
20181216221615 56 195 4.0 12.0 0.00 0.00 0.00 27 1017.0
20181216220024 55 185 8.0 16.0 0.00 0.00 0.00 28 1017.1
20181216213116 55 193 9.0 16.0 0.00 0.00 0.00 29 1017.1
20181216211551 54 201 13.0 25.0 0.00 0.00 0.00 30 1017.1
20181216204636 54 213 14.0 23.0 0.00 0.00 0.00 30 1017.7
20181216203019 53 172 10.0 19.0 0.00 0.00 0.00 32 1018.0
20181216201652 52 340 9.0 17.0 0.00 0.00 0.00 32 1018.1
20181216200030 53 203 15.0 24.0 0.00 0.00 0.00 31 1018.4
20181216193153 52 262 4.0 15.0 0.00 0.00 0.00 34 1019.0
20181216191522 52 233 8.0 15.0 0.00 0.00 0.00 34 1019.3
20181216190208 52 202 8.0 15.0 0.00 0.00 0.00 34 1019.6
20181216184550 51 243 5.0 11.0 0.00 0.00 0.00 35 1020.1
20181216183003 50 107 0.0 10.0 0.00 0.00 0.00 36 1020.5
20181216181630 49 251 1.0 5.0 0.00 0.00 0.00 37 1020.8
20181216180014 49 200 3.0 9.0 0.00 0.00 0.00 38 1021.1
20181216173129 46 201 4.0 8.0 0.00 0.00 0.00 41 1021.5
20181216170128 45 96 7.0 12.0 0.00 0.00 0.00 43 1021.3
20181216164554 44 198 7.0 13.0 0.00 0.00 0.00 44 1021.4
20181216163145 42 149 5.0 10.0 0.00 0.00 0.00 45 1021.5
20181216161637 42 240 4.0 8.0 0.00 0.00 0.00 45 1021.5
20181216160034 41 171 4.0 8.0 0.00 0.00 0.00 45 1021.2
20181216154613 41 73 2.0 4.0 0.00 0.00 0.00 44 1021.4
20181216153107 0 0.0 0.0 0.00 0.00 0.00 1021.4
20181216150153 0 0.0 0.0 0.00 0.00 0.00 1021.4
20181216144513 0 0.0 0.0 0.00 0.00 0.00 1021.5
20181216143133 0 0.0 0.0 0.00 0.00 0.00 1021.4